Probability
0 0 0 0 0 0 0 0 0 0 0 0 0 0 0 0 0 0 0 0 1 0 0 0 0 0 0 0 0 0 0 0 0 0 0 0 0 0 0 0 0 0 0 0
0 0 0 0 0 0 0 0 0 0 0 0 0 0 0 0 0 0 0 1 1 1 0 0 0 0 0 0 0 0 0 0 0 0 0 0 0 0 0 0 0 0 0 0
0 0 0 0 0 0 0 0 0 0 0 0 0 0 0 0 0 0 0 1 2 2 1 0 0 0 0 0 0 0 0 0 0 0 0 0 0 0 0 0 0 0 0 0
0 0 0 0 0 0 0 0 0 0 0 0 0 0 0 0 0 0 0 1 2 2 1 0 0 0 0 0 0 0 0 0 0 0 0 0 0 0 0 0 0 0 0 0
0 0 0 0 0 0 0 0 0 0 0 0 0 0 0 0 0 0 0 0 1 1 1 0 0 0 0 0 0 0 0 0 0 0 0 0 0 0 0 0 0 0 0 0
0 0 0 0 0 0 0 0 0 0 0 0 0 0 0 0 0 0 0 0 0 0 0 0 0 0 0 0 0 0 0 0 0 0 0 0 0 0 0 0 0 0 0 0
0 0 0 0 0 0 0 0 0 0 0 0 0 0 0 0 0 0 0 0 0 0 0 0 0 0 0 0 0 0 0 0 0 0 0 0 0 0 0 0 0 0 0 0
0 0 0 0 0 0 0 0 0 0 0 0 0 0 0 0 0 0 0 0 0 0 0 0 0 0 0 0 0 0 0 0 0 0 0 0 0 0 0 0 0 0 0 0
0 0 0 0 0 0 0 0 0 0 0 0 0 0 0 0 0 0 0 0 0 0 0 0 0 0 0 0 0 0 0 0 0 0 0 0 0 0 0 0 0 0 0 0
0 0 0 0 0 0 0 0 0 0 0 0 0 0 0 0 0 0 0 0 0 0 0 0 0 0 0 0 0 0 0 0 0 0 0 0 0 0 0 0 0 0 0 0
0 0 0 0 0 0 0 0 0 0 0 0 0 0 0 0 0 0 0 0 0 0 0 0 0 0 0 0 0 0 0 0 0 0 0 0 0 0 0 0 0 0 0 0
0 0 0 0 0 0 0 0 0 0 0 0 0 0 0 0 0 0 0 0 0 0 0 0 0 0 0 0 0 0 0 0 0 0 0 0 0 0 0 0 0 0 0 0
0 0 0 0 0 0 0 0 0 0 0 0 0 0 0 0 0 0 0 0 0 0 0 0 0 0 0 0 0 0 0 0 0 0 0 0 0 0 0 0 0 0 0 0
0 0 0 0 0 0 0 0 0 0 0 0 0 0 0 0 0 0 0 0 0 0 0 0 0 0 0 0 0 0 0 0 0 0 0 0 0 0 0 0 0 0 0 0
0 0 0 0 0 0 0 0 0 0 0 0 0 0 0 0 0 0 0 0 0 0 0 0 0 0 0 0 0 0 0 0 0 0 0 0 0 0 0 0 0 0 0 0
0 0 0 0 0 0 0 0 0 0 0 0 0 0 0 0 0 0 0 0 0 0 0 0 0 0 0 0 0 0 0 0 0 0 0 0 0 0 0 0 0 0 0 0
0 0 0 0 0 0 0 0 0 0 0 0 0 0 0 0 0 0 0 0 0 0 0 0 0 0 0 0 0 0 0 0 0 0 0 0 0 0 0 0 0 0 0 0
0 0 0 0 0 0 0 0 0 0 0 0 0 0 0 0 0 0 0 0 0 0 0 0 0 0 0 0 0 0 0 0 0 0 0 0 0 0 0 0 0 0 0 0
0 0 0 0 0 0 0 0 0 0 0 0 0 0 0 0 0 0 0 0 0 0 0 0 0 0 0 0 0 0 0 0 0 0 0 0 0 0 0 0 0 0 0 0
0 0 0 0 0 0 0 0 0 0 0 0 0 0 0 0 0 0 0 0 0 0 0 0 0 0 0 0 0 0 0 0 0 0 0 0 0 0 0 0 0 0 0 0
0 0 0 0 0 0 0 0 0 0 0 0 0 0 0 0 0 0 0 0 0 0 0 0 0 0 0 0 0 0 0 0 0 0 0 0 0 0 0 0 0 0 0 0
0 0 0 0 0 0 0 0 0 0 0 0 0 0 0 0 0 0 0 0 0 0 0 0 0 0 0 0 0 0 0 0 0 0 0 0 0 0 0 0 0 0 0 0
0 0 0 0 0 0 0 0 0 0 0 0 0 0 0 0 0 0 0 0 0 0 0 0 0 0 0 0 0 0 0 0 0 0 0 0 0 0 0 0 0 0 0 0
0 0 0 0 0 0 0 0 0 0 0 0 0 0 0 0 0 0 0 0 0 0 0 0 0 0 0 0 0 0 0 0 0 0 0 0 0 0 0 0 0 0 0 0
0 0 0 0 0 0 0 0 0 0 0 0 0 0 0 0 0 0 0 0 0 0 0 0 0 0 0 0 0 0 0 0 0 0 0 0 0 0 0 0 0 0 0 0
0 0 0 0 0 0 0 0 0 0 0 0 0 0 0 0 0 0 0 0 0 0 0 0 0 0 0 0 0 0 0 0 0 0 0 0 0 0 0 0 0 0 0 0
0 0 0 0 0 0 0 0 0 0 0 0 0 0 0 0 0 0 0 0 0 0 0 0 0 0 0 0 0 0 0 0 0 0 0 0 0 0 0 0 0 0 0 0
Wind_Speed
4 3 3 4 5 5 6 8 8 8 8 9 7 6 5 3 2 2 2 3 3 3 3 2 2 2 2 2 2 2 1 2 3 3 2 1 1 1 1 2 2 1 1 1
2 2 2 4 6 7 7 6 6 5 8 7 4 2 2 3 3 4 4 4 3 3 3 3 4 3 2 3 2 2 2 2 2 1 1 1 1 1 1 1 1 1 1 1
3 3 1 5 6 6 5 5 6 7 8 3 2 3 4 4 4 5 5 4 4 5 5 5 4 4 4 3 2 2 2 2 1 2 2 2 1 0 1 1 0 1 1 1
1 1 5 7 2 4 4 4 4 5 4 3 4 4 3 3 4 4 4 3 3 3 3 3 3 2 2 2 2 2 2 2 2 2 2 2 1 1 1 1 1 1 1 1
3 3 6 6 2 3 4 4 4 4 3 1 1 2 3 2 2 3 3 3 3 3 2 1 1 2 2 1 1 1 2 2 2 2 2 2 2 2 1 1 1 1 1 1
3 3 6 6 2 1 2 4 3 3 3 1 2 1 5 3 2 1 1 0 1 1 1 1 1 1 2 1 1 2 3 3 2 2 3 3 3 2 1 1 1 1 1 1
4 4 7 5 3 1 3 6 3 3 3 4 4 5 4 1 1 1 1 1 1 2 1 1 1 2 2 1 2 3 2 1 1 1 2 2 2 1 1 1 1 1 1 1
4 4 8 3 2 4 6 3 2 2 3 4 4 2 1 1 1 1 1 1 2 2 0 1 0 2 1 2 2 1 0 0 1 1 1 1 1 1 1 1 1 1 1 2
7 7 4 2 4 4 2 2 3 2 3 3 2 2 1 1 1 0 0 1 1 1 0 1 0 1 1 2 1 0 1 0 1 1 1 1 1 1 1 1 1 1 1 2
3 5 4 4 3 3 2 3 3 2 2 2 3 2 2 1 1 0 0 1 1 1 0 1 1 0 1 1 0 1 1 1 1 0 1 0 0 1 1 1 1 1 1 2
4 5 4 3 3 3 2 1 1 1 1 2 3 2 2 1 1 1 1 1 1 1 1 1 0 1 1 0 1 1 0 1 1 1 0 0 1 1 2 2 3 3 2 2
6 6 4 5 3 2 1 2 1 1 1 1 2 3 2 2 1 1 1 1 1 1 1 1 0 0 1 0 1 2 0 1 1 1 1 0 0 1 2 2 3 3 3 3
5 3 3 4 3 2 2 2 2 2 2 2 2 2 2 2 1 1 1 1 2 2 2 2 1 1 1 0 1 1 1 1 1 0 0 1 0 0 1 3 3 3 3 4
4 2 2 3 3 3 2 2 1 1 1 1 1 1 1 1 1 1 2 2 2 2 1 1 1 1 1 1 1 1 1 1 1 1 1 1 1 1 1 1 2 3 3 4
3 4 5 3 2 2 1 0 0 2 2 2 1 1 2 2 2 2 2 1 1 1 1 1 1 2 2 1 1 1 0 1 1 1 1 1 1 1 1 1 1 2 2 3
3 2 2 1 2 2 1 1 2 3 3 2 2 2 2 2 2 1 1 1 2 2 2 2 2 3 1 1 1 1 1 1 1 0 0 1 1 1 1 1 1 2 2 3
2 3 2 2 3 3 3 3 3 3 3 3 3 2 1 1 1 0 1 1 1 2 2 2 3 2 1 1 1 1 1 1 1 1 1 1 1 1 1 1 2 2 3 3
5 5 4 4 4 3 3 3 3 3 3 3 2 1 1 2 2 2 2 1 0 1 2 2 2 1 1 1 1 1 1 1 1 1 1 1 2 2 1 2 2 3 3 3
2 3 3 3 3 3 3 3 3 3 2 1 2 2 2 2 2 1 1 1 1 2 3 2 1 1 1 2 1 1 1 1 1 2 2 2 2 2 2 2 2 3 3 2
1 2 2 2 2 2 3 3 2 2 2 2 2 1 1 1 1 1 1 2 3 3 2 2 1 1 2 2 1 0 1 1 2 2 2 2 2 2 2 2 3 3 2 2
1 2 2 2 2 2 2 2 2 2 2 2 3 3 3 2 1 1 1 2 3 2 2 2 1 1 1 1 1 1 1 2 2 2 2 2 2 2 3 2 2 3 3 2
2 2 2 2 2 2 2 2 2 2 2 2 2 2 1 1 1 1 2 2 3 2 1 1 1 2 2 1 0 1 1 1 2 2 2 2 2 2 2 2 2 2 2 2
2 2 2 3 3 3 2 1 2 2 2 3 2 2 3 2 2 2 3 2 2 2 1 1 3 2 1 1 0 0 1 1 2 2 2 2 2 2 2 2 2 2 2 2
2 2 2 2 1 1 2 2 2 2 2 2 2 2 2 1 1 2 2 2 3 2 0 2 2 1 1 1 0 1 1 1 2 2 2 2 2 2 2 2 2 2 2 3
2 2 1 1 1 2 3 2 1 1 1 1 1 1 1 2 2 2 1 1 2 1 0 1 1 0 1 0 0 1 1 1 1 1 1 1 2 2 2 2 2 3 3 3
1 2 2 3 3 2 2 1 1 1 1 1 1 1 0 0 0 1 1 1 1 0 0 0 1 0 0 0 1 1 1 2 2 2 2 2 2 2 2 2 3 3 3 3
1 1 1 2 2 2 1 2 2 2 2 2 2 2 1 1 1 1 1 1 0 0 0 0 0 0 0 1 1 1 2 2 2 2 2 2 2 3 3 3 3 3 3 3
Wind_Direction
229 226 193 215 220 195 193 196 199 227 232 255 253 244 246 244 234 196 205 216 216 219 224 221 223 233 228 231 231 206 193 210 228 234 233 229 243 254 242 217 216 211 205 215
275 249 221 238 239 224 222 214 218 238 258 256 260 250 243 231 216 214 219 223 227 225 222 224 223 226 232 234 232 200 197 226 241 230 227 228 234 238 230 228 216 181 192 200
254 294 350 264 233 212 217 214 196 222 244 274 293 260 240 231 217 218 223 218 216 223 222 225 224 218 216 224 220 206 216 232 235 220 218 224 215 167 219 221 175 164 202 198
194 56 239 245 237 192 205 237 216 226 250 242 240 249 246 222 214 228 228 221 220 222 228 232 223 216 213 210 200 207 227 235 232 215 214 210 187 196 220 209 199 218 223 228
145 215 272 292 267 184 190 254 230 220 249 267 323 16 329 287 244 235 232 217 210 215 216 213 212 199 168 179 191 202 239 248 238 212 201 194 200 219 222 214 238 244 244 231
148 189 239 250 277 263 135 270 264 197 212 198 103 54 274 291 298 295 297 189 163 146 119 132 220 161 149 176 189 221 238 252 245 211 202 205 210 216 222 210 227 239 278 257
179 218 257 261 281 119 164 248 262 210 210 183 193 214 241 280 314 328 356 39 95 105 116 221 204 136 146 187 231 242 244 257 258 223 213 207 200 204 199 202 209 248 274 283
164 202 254 276 122 175 224 257 259 230 219 199 222 247 273 249 275 353 17 45 89 99 37 340 100 126 157 246 266 280 210 210 278 270 247 206 175 189 181 177 197 254 288 315
190 213 241 239 217 248 235 242 253 234 234 199 208 239 248 226 250 283 20 74 73 95 37 353 10 148 210 275 296 48 83 174 266 299 290 219 181 179 177 173 197 241 252 279
247 266 266 273 271 281 248 237 252 228 216 189 204 227 232 225 240 239 166 131 113 112 130 294 296 279 233 268 256 99 81 309 293 311 319 311 253 196 188 196 210 239 253 262
254 277 304 298 274 271 289 305 316 307 229 195 186 215 213 200 213 223 213 173 154 169 216 249 288 350 355 97 118 94 57 318 316 314 265 287 293 258 224 224 215 219 231 234
224 230 218 256 277 272 261 282 272 284 311 283 196 206 211 208 202 189 201 194 180 192 223 248 236 323 332 0 123 122 92 311 300 299 281 230 251 325 318 281 277 263 254 247
225 230 226 255 288 271 228 242 249 238 240 260 262 215 200 207 195 177 188 196 205 212 215 214 200 235 283 294 121 144 197 251 258 258 254 247 224 199 317 330 333 320 298 288
240 224 259 258 258 267 253 253 253 281 274 246 246 227 190 182 179 187 223 235 223 204 206 208 209 250 262 223 191 214 221 245 239 235 246 236 229 221 229 290 325 323 322 320
247 222 225 244 266 291 300 341 354 307 303 300 261 201 180 178 201 225 243 242 203 184 216 219 245 272 284 240 214 236 245 286 265 229 240 253 250 242 249 266 276 295 314 322
262 261 225 216 237 262 289 273 252 267 273 269 256 239 218 196 197 208 227 210 186 210 234 243 254 269 268 231 230 241 249 284 299 257 261 279 271 257 256 259 272 286 294 300
208 249 248 242 241 247 239 237 237 245 253 250 244 239 211 180 178 237 265 258 219 225 231 241 258 275 266 229 218 233 251 265 309 315 255 250 250 249 255 261 268 275 280 287
214 223 220 214 218 231 248 249 243 245 241 241 226 182 178 189 207 232 258 281 3 301 267 250 255 285 299 267 226 220 225 231 243 252 252 254 260 262 265 265 270 275 285 290
236 235 235 230 222 219 237 251 255 250 241 203 179 187 202 213 215 228 239 222 225 255 272 274 296 337 275 270 261 208 210 232 253 265 259 263 269 266 262 263 265 268 275 283
259 254 250 251 241 224 238 250 243 239 224 184 178 177 213 238 225 209 201 243 249 251 254 262 280 281 277 268 289 225 229 244 256 262 265 260 258 262 260 261 265 271 275 274
258 263 257 248 254 251 239 227 211 222 222 187 187 205 213 225 225 205 213 268 276 272 256 254 257 263 259 251 277 245 247 257 262 259 257 259 263 265 265 266 269 275 278 278
266 259 260 254 251 267 264 233 217 213 205 209 216 206 192 222 235 247 251 247 255 258 256 240 254 268 282 307 253 225 240 258 270 270 265 261 261 269 274 278 280 285 288 289
267 261 263 257 247 255 275 253 224 207 206 210 208 206 209 218 209 210 264 269 252 251 259 249 272 282 310 60 72 257 260 268 270 271 276 273 268 270 272 277 282 287 288 294
274 272 269 271 253 225 264 269 252 231 222 225 219 209 196 205 259 252 241 259 271 270 246 271 288 312 67 69 338 295 272 264 268 272 284 292 286 282 279 279 283 283 281 285
267 271 278 256 237 244 247 252 251 239 230 256 252 231 210 193 207 242 253 245 257 278 322 269 272 336 54 33 278 294 298 293 291 291 285 299 298 290 285 283 281 283 286 287
259 254 251 246 244 244 233 209 214 222 205 235 281 276 268 257 197 187 207 232 230 274 308 254 232 234 337 284 282 292 297 300 305 308 300 297 298 295 292 293 293 292 294 294
289 284 288 296 289 261 232 211 211 221 209 203 228 239 228 221 209 205 193 196 212 221 238 254 232 216 240 275 288 296 301 304 307 308 304 298 296 294 290 290 294 296 297 298